Weather History for Keokuk, IA

Change the Weather History Date:

Monday, March 3, 2014

  Actual Average Record
Temperature  
Mean Temperature 3 °F -  
Max Temperature 15 °F 48 °F 79 °F (1983)
Min Temperature -9 °F 29 °F -9 °F (2014)
Degree Days  
Heating Degree Days 62    
Moisture  
Dew Point -8 °F    
Average Humidity 58    
Maximum Humidity 77    
Minimum Humidity 35    
Precipitation  
Precipitation 0.00 in - - ()
Sea Level Pressure  
Sea Level Pressure 30.46 in    
Wind  
Wind Speed 6 mph (NE)    
Max Wind Speed 10 mph    
Max Gust Speed 15 mph    
Visibility 10 miles    
Events      
Averages and records for this station are not official NWS values.
T = Trace of Precipitation, MM = Missing Value Source: NWS Daily Summary

Daily Weather History Graph

Daily Weather History Graph

Search for Another Location

Airport:

Trip Planner

Search our weather history database for the weather conditions in past years. The results will help you decide how hot, cold, wet, or windy it might be!

Date:

Astronomy

Mar. 03, 2014 Rise Set
Actual Time 6:36 AM CST 5:59 PM CST
Civil Twilight 6:09 AM CST 6:26 PM CST
Nautical Twilight 5:37 AM CST 6:58 PM CST
Astronomical Twilight 5:05 AM CST 7:30 PM CST
Moon 7:44 AM CST (3/3) 9:03 PM CST (3/3)
Length of Visible Light 12h 17m
Length of Day
11h 23m
Waxing Crescent, 8% of the Moon is Illuminated
Mar 3
Waxing Crescent
Mar 8
First Quarter
Mar 16
Full
Mar 23
Last Quarter
Mar 30
New

Hourly Weather History & Observations

Time (CST) Temp. Windchill Dew Point Humidity Pressure Visibility Wind Dir Wind Speed Gust Speed Precip Events Conditions
12:15 AM -2.2 °F -16.8 °F -14.8 °F 55% 30.50 in 10.0 mi North 8.1 mph - N/A   Clear
12:35 AM -4.0 °F -20.2 °F -14.8 °F 60% 30.50 in 10.0 mi North 9.2 mph - N/A   Clear
12:55 AM -4.0 °F -19.0 °F -14.8 °F 60% 30.50 in 10.0 mi NNW 8.1 mph - N/A   Clear
1:15 AM -4.0 °F -20.2 °F -14.8 °F 60% 30.49 in 10.0 mi NNW 9.2 mph - N/A   Clear
1:35 AM -4.0 °F -20.2 °F -14.8 °F 60% 30.49 in 10.0 mi NNW 9.2 mph 15.0 mph N/A   Clear
1:55 AM -5.8 °F -19.9 °F -14.8 °F 65% 30.49 in 10.0 mi NNW 6.9 mph - N/A   Clear
2:15 AM -5.8 °F -22.4 °F -14.8 °F 65% 30.49 in 10.0 mi NNW 9.2 mph 15.0 mph N/A   Clear
2:35 AM -5.8 °F -19.9 °F -14.8 °F 65% 30.48 in 10.0 mi NNW 6.9 mph - N/A   Clear
2:55 AM -5.8 °F -22.4 °F -14.8 °F 65% 30.48 in 10.0 mi North 9.2 mph - N/A   Clear
3:15 AM -5.8 °F -23.4 °F -14.8 °F 65% 30.48 in 10.0 mi North 10.4 mph - N/A   Clear
3:35 AM -5.8 °F -23.4 °F -14.8 °F 65% 30.49 in 10.0 mi North 10.4 mph - N/A   Clear
3:55 AM -7.6 °F -20.6 °F -14.8 °F 71% 30.49 in 10.0 mi NNW 5.8 mph - N/A   Clear
4:15 AM -7.6 °F -18.8 °F -14.8 °F 71% 30.50 in 10.0 mi North 4.6 mph - N/A   Clear
4:35 AM -7.6 °F -23.4 °F -14.8 °F 71% 30.51 in 10.0 mi North 8.1 mph - N/A   Clear
4:55 AM -7.6 °F -18.8 °F -14.8 °F 71% 30.51 in 10.0 mi NNW 4.6 mph - N/A   Clear
5:15 AM -7.6 °F -18.8 °F -14.8 °F 71% 30.51 in 10.0 mi NNW 4.6 mph - N/A   Clear
5:35 AM -9.4 °F -20.9 °F -14.8 °F 77% 30.51 in 10.0 mi NNW 4.6 mph - N/A   Clear
5:55 AM -9.4 °F -20.9 °F -14.8 °F 77% 30.52 in 10.0 mi NNW 4.6 mph - N/A   Clear
6:15 AM -9.4 °F - -14.8 °F 77% 30.52 in 10.0 mi Calm Calm - N/A   Clear
6:35 AM -9.4 °F -24.3 °F -14.8 °F 77% 30.52 in 10.0 mi NNW 6.9 mph - N/A   Clear
6:55 AM -9.4 °F -22.7 °F -14.8 °F 77% 30.53 in 10.0 mi NNW 5.8 mph - N/A   Clear
7:15 AM -9.4 °F -18.6 °F -14.8 °F 77% 30.52 in 10.0 mi NNW 3.5 mph - N/A   Clear
7:35 AM -7.6 °F -22.1 °F -14.8 °F 71% 30.52 in 10.0 mi North 6.9 mph - N/A   Clear
7:55 AM -5.8 °F -19.9 °F -13.0 °F 71% 30.52 in 10.0 mi North 6.9 mph - N/A   Clear
8:15 AM -4.0 °F -16.3 °F -13.0 °F 65% 30.53 in 10.0 mi NNW 5.8 mph - N/A   Clear
8:35 AM -2.2 °F -12.5 °F -13.0 °F 60% 30.53 in 10.0 mi North 4.6 mph - N/A   Clear
8:55 AM -2.2 °F -10.4 °F -13.0 °F 60% 30.53 in 10.0 mi NNW 3.5 mph - N/A   Clear
9:15 AM -0.4 °F -8.3 °F -11.2 °F 60% 30.53 in 10.0 mi Variable 3.5 mph - N/A   Clear
9:35 AM 1.4 °F -6.2 °F -13.0 °F 51% 30.54 in 10.0 mi Variable 3.5 mph - N/A   Clear
9:55 AM 3.2 °F -7.8 °F -11.2 °F 51% 30.53 in 10.0 mi East 5.8 mph - N/A   Clear
10:15 AM 3.2 °F -9.1 °F -11.2 °F 51% 30.53 in 10.0 mi East 6.9 mph - N/A   Clear
10:35 AM 3.2 °F -6.2 °F -11.2 °F 51% 30.54 in 10.0 mi ESE 4.6 mph - N/A   Clear
10:55 AM 5.0 °F -4.1 °F -11.2 °F 47% 30.53 in 10.0 mi East 4.6 mph - N/A   Clear
11:15 AM 6.8 °F - -13.0 °F 40% 30.54 in 10.0 mi Calm Calm - N/A   Clear
11:35 AM 6.8 °F - -11.2 °F 44% 30.53 in 10.0 mi Calm Calm - N/A   Clear
11:55 AM 8.6 °F - -9.4 °F 44% 30.52 in 10.0 mi Calm Calm - N/A   Clear
12:15 PM 10.4 °F 4.0 °F -9.4 °F 41% 30.51 in 10.0 mi East 3.5 mph - N/A   Clear
12:35 PM 10.4 °F 0.8 °F -5.8 °F 48% 30.50 in 10.0 mi East 5.8 mph - N/A   Clear
12:55 PM 10.4 °F 4.0 °F -5.8 °F 48% 30.50 in - East 3.5 mph - N/A   Clear
1:15 PM 12.2 °F 6.1 °F -5.8 °F 45% 30.49 in 10.0 mi East 3.5 mph - N/A   Clear
1:35 PM 12.2 °F 6.1 °F -4.0 °F 48% 30.48 in 10.0 mi Variable 3.5 mph - N/A   Clear
1:55 PM 14.0 °F - -4.0 °F 45% 30.47 in 10.0 mi Calm Calm - N/A   Clear
2:15 PM 14.0 °F - -4.0 °F 45% 30.46 in 10.0 mi Calm Calm - N/A   Clear
2:35 PM 14.0 °F - -2.2 °F 49% 30.46 in 10.0 mi Calm Calm - N/A   Clear
2:55 PM 15.8 °F - -4.0 °F 41% 30.47 in 10.0 mi Calm Calm - N/A   Clear
3:15 PM 15.8 °F - -4.0 °F 41% 30.45 in 10.0 mi Calm Calm - N/A   Clear
3:35 PM 15.8 °F 8.6 °F -7.6 °F 35% 30.44 in 10.0 mi SSW 4.6 mph - N/A   Clear
3:55 PM 15.8 °F - -2.2 °F 45% 30.44 in 10.0 mi Calm Calm - N/A   Clear
4:15 PM 15.8 °F - -7.6 °F 35% 30.43 in 10.0 mi Calm Calm - N/A   Clear
4:35 PM 15.8 °F 10.2 °F -7.6 °F 35% 30.43 in 10.0 mi Variable 3.5 mph - N/A   Clear
4:55 PM 14.0 °F 5.1 °F -2.2 °F 49% 30.43 in 10.0 mi ESE 5.8 mph - N/A   Clear
5:15 PM 14.0 °F 5.1 °F -2.2 °F 49% 30.42 in 10.0 mi East 5.8 mph - N/A   Clear
5:35 PM 14.0 °F 6.5 °F -2.2 °F 49% 30.42 in 10.0 mi East 4.6 mph - N/A   Clear
5:55 PM 14.0 °F 6.5 °F -2.2 °F 49% 30.41 in 10.0 mi ESE 4.6 mph - N/A   Clear
6:15 PM 10.4 °F 0.8 °F -0.4 °F 62% 30.40 in 10.0 mi East 5.8 mph - N/A   Clear
6:35 PM 10.4 °F 0.8 °F 1.4 °F 67% 30.39 in 10.0 mi East 5.8 mph - N/A   Clear
6:55 PM 10.4 °F -0.4 °F 1.4 °F 67% 30.39 in 10.0 mi ESE 6.9 mph - N/A   Clear
7:15 PM 10.4 °F -1.5 °F -0.4 °F 62% 30.37 in 10.0 mi SE 8.1 mph - N/A   Clear
7:35 PM 10.4 °F 0.8 °F -0.4 °F 62% 30.36 in 10.0 mi SE 5.8 mph - N/A   Clear
7:55 PM 10.4 °F - -2.2 °F 57% 30.37 in 10.0 mi Calm Calm - N/A   Clear
8:15 PM 10.4 °F - -2.2 °F 57% 30.37 in 10.0 mi Calm Calm - N/A   Clear
8:35 PM 10.4 °F 2.2 °F -2.2 °F 57% 30.36 in 10.0 mi SE 4.6 mph - N/A   Clear
8:55 PM 10.4 °F 0.8 °F -2.2 °F 57% 30.36 in 10.0 mi ESE 5.8 mph - N/A   Clear
9:15 PM 10.4 °F 2.2 °F -0.4 °F 62% 30.36 in 10.0 mi SE 4.6 mph - N/A   Clear
9:30 PM 10.4 °F -0.4 °F -2.2 °F 57% 30.35 in 10.0 mi SE 6.9 mph - N/A   Clear
9:55 PM 12.2 °F -0.2 °F -0.4 °F 57% 30.32 in 10.0 mi SE 9.2 mph - N/A   Clear
10:15 PM 12.2 °F 0.7 °F -0.4 °F 57% 30.31 in 10.0 mi SE 8.1 mph - N/A   Clear
10:35 PM 12.2 °F 1.7 °F 1.4 °F 62% 30.31 in 10.0 mi ESE 6.9 mph - N/A   Partly Cloudy
10:55 PM 12.2 °F - 1.4 °F 62% 30.32 in - Calm Calm - N/A   Scattered Clouds
11:15 PM 12.2 °F - 1.4 °F 62% 30.33 in 10.0 mi Calm Calm - N/A   Overcast
11:35 PM 12.2 °F - 3.2 °F 67% 30.32 in 10.0 mi Calm Calm - N/A   Overcast
11:55 PM 12.2 °F - 3.2 °F 67% 30.32 in 10.0 mi Calm Calm - N/A   Overcast